Formosa, Argentina

9:32 AM America on September 24, 2017 (GMT +0000)
Formosa

Weather History for SARF - March, 2014

Change the Weather History Date:

Sunday, March 9, 2014

  Actual Average Record
Temperature  
Mean Temperature 76 °F -  
Max Temperature 93 °F 87 °F 100 °F (2012)
Min Temperature 59 °F 67 °F 59 °F (2014)
Cooling Degree Days 11    
Growing Degree Days 26 (Base 50)    
Moisture  
Dew Point 63 °F    
Average Humidity 67    
Maximum Humidity 100    
Minimum Humidity 27    
Precipitation  
Precipitation 0.00 in 0.20 in - ()
Sea Level Pressure  
Sea Level Pressure 29.77 in    
Wind  
Wind Speed 4 mph ()    
Max Wind Speed 9 mph    
Max Gust Speed -    
Visibility 12.0 miles    
Events      
Averages and records for this station are not official NWS values.
T = Trace of Precipitation, MM = Missing Value Source: Averaged Metar Reports

Daily Weather History Graph

Daily Weather History Graph

Search for Another Location

Airport or City:

Trip Planner

Search our weather history database for the weather conditions in past years. The results will help you decide how hot, cold, wet, or windy it might be!

Date:

Astronomy

Mar. 09, 2014 Rise Set
Actual Time 6:50 AM -03 7:15 PM -03
Civil Twilight 6:27 AM -03 7:38 PM -03
Nautical Twilight 6:00 AM -03 8:05 PM -03
Astronomical Twilight 5:33 AM -03 8:33 PM -03
Moon 2:30 PM -03 (3/9) 12:45 AM -03 (3/9)
Length of Visible Light 13h 10m
Length of Day
12h 24m
First Quarter, 60% of the Moon is Illuminated
Mar 9
First Quarter
Mar 16
Full
Mar 23
Last Quarter
Mar 30
New
Apr 7
First Quarter

Hourly Weather History & Observations

Time (-03) Temp. Heat Index Dew Point Humidity Pressure Visibility Wind Dir Wind Speed Gust Speed Precip Events Conditions
12:00 AM 69 °F - 62 °F 72% 29.84 in 12 mi SE 3.5 mph - -  
12:00 AM 69.8 °F - 62.6 °F 78% 29.86 in - SE 3.5 mph - N/A   Clear
1:00 AM 64.4 °F - 62.6 °F 94% 29.86 in - South 2.3 mph - N/A   Clear
2:00 AM 64.4 °F - 62.6 °F 94% 29.83 in - South 3.5 mph - N/A   Clear
3:00 AM 63 °F - 61 °F 92% 29.83 in 12 mi South 2.3 mph - -  
3:00 AM 62.6 °F - 60.8 °F 94% 29.83 in - South 2.3 mph - N/A   Clear
4:00 AM 62.6 °F - 60.8 °F 94% 29.83 in - South 2.3 mph - N/A   Clear
5:00 AM 60.8 °F - 60.8 °F 100% 29.80 in - Calm Calm - N/A   Clear
6:00 AM 60 °F - 60 °F 98% 29.80 in 12 mi East 2.3 mph - -  
6:00 AM 60.8 °F - 59.0 °F 94% 29.80 in - East 2.3 mph - N/A   Clear
7:00 AM 60.8 °F - 59.0 °F 94% 29.80 in - East 4.6 mph - N/A   Clear
8:00 AM 66.2 °F - 62.6 °F 88% 29.83 in - East 6.9 mph - N/A   Clear
9:00 AM 72 °F - 64 °F 71% 29.81 in 12 mi East 6.9 mph - -   Clear
9:00 AM 71.6 °F - 64.4 °F 78% 29.83 in - East 6.9 mph - N/A   Clear
10:00 AM 77.0 °F - 62.6 °F 61% 29.83 in - East 9.2 mph - N/A   Clear
11:00 AM 82.4 °F 83.9 °F 64.4 °F 54% 29.83 in - ENE 9.2 mph - N/A   Clear
12:00 PM 86 °F - 61 °F 32% 29.80 in 12 mi NE 5.8 mph - -   Clear
12:00 PM 86.0 °F 86.1 °F 60.8 °F 43% 29.80 in - NE 5.8 mph - N/A   Clear
1:00 PM 89.6 °F 89.5 °F 60.8 °F 38% 29.77 in - NW 6.9 mph - N/A   Clear
2:00 PM 89.6 °F 89.5 °F 60.8 °F 38% 29.77 in - NE 4.6 mph - N/A   Clear
3:00 PM 91 °F - 61 °F 27% 29.72 in 12 mi NW 6.9 mph - -   Clear
3:00 PM 91.4 °F 91.4 °F 60.8 °F 36% 29.74 in - NW 6.9 mph - N/A   Clear
4:00 PM 91.4 °F 91.4 °F 60.8 °F 36% 29.71 in - West 5.8 mph - N/A   Clear
5:00 PM 93.2 °F 93.3 °F 60.8 °F 34% 29.68 in - North 2.3 mph - N/A   Clear
6:00 PM 89 °F - 62 °F 31% 29.69 in 12 mi South 5.8 mph - -   Scattered Clouds
6:00 PM 89.6 °F 90.1 °F 62.6 °F 40% 29.68 in - South 5.8 mph - N/A   Clear
7:00 PM 84.2 °F 87.3 °F 68.0 °F 58% 29.68 in - North - - N/A   Clear
8:00 PM 78.8 °F - 69.8 °F 74% 29.68 in - SSW 2.3 mph - N/A   Clear
9:00 PM 76 °F - 70 °F 76% 29.68 in 12 mi ESE 5.8 mph - -   Partly Cloudy
9:00 PM 77.0 °F - 69.8 °F 78% 29.68 in - ESE 5.8 mph - N/A   Clear
10:00 PM 75.2 °F - 64.4 °F 69% 29.71 in - SE 4.6 mph - N/A   Clear